METEOR 3-3

导读 | 星芒AI

METEOR 3-3 是一颗俄罗斯气象卫星,属于 METEOR 系列,于 2008 年发射。该卫星主要用于地球观测,提供气象、环境和灾害监测数据。它搭载了多种遥感仪器,能够获取高分辨率的可见光和红外图像,支持天气预报和气候研究。METEOR 3-3 在轨运行期间为俄罗斯及国际气象组织提供了重要的气象数据支持。

基本信息
目录编号:
20305
目录名称:
METEOR 3-3
国际标识:
1989-086A
轨道中心:
EARTH
卫星名称:
METEOR 3-3
卫星全名:
--
卫星状态:
在轨 (已飞行13199 天)
发射日期:
1989-10-24 UTC
国别 :
俄罗斯(独联体) (CIS)
星等 :
--
轨道信息
数据来源 国际轨道数据
星历时间: 2025-12-13T02:17:14+0800
15小时前
查看轨道信息
半长轴: 7621.959km
偏心率: 0.0005913
轨道倾角: 82.548°
近地点辐角 260.539°
升交点赤经 235.926°
平近点角 167.853°
近地点: 1239.317km
远地点: 1248.331km
周期: 110.372分钟
每日圈数: 13.046766
详细信息
使用方式:
暂无
2D轨道图
3D轨道图
轨道高度分析图
轨道倾角分析图
轨道综合分析图
查看轨道综合分析图